Change the Weather History Date:

Saturday, November 23, 2013

  Actual Average Record
Temperature  
Mean Temperature 24 °F -  
Max Temperature 30 °F 42 °F 62 °F (2003)
Min Temperature 15 °F 27 °F 5 °F (1987)
Degree Days  
Heating Degree Days 42    
Moisture  
Dew Point 17 °F    
Average Humidity 72    
Maximum Humidity 86    
Minimum Humidity 54    
Precipitation  
Precipitation 0.00 in - - ()
Sea Level Pressure  
Sea Level Pressure 30.11 in    
Wind  
Wind Speed 12 mph (WNW)    
Max Wind Speed 30 mph    
Max Gust Speed 43 mph    
Visibility 6 miles    
Events      
Averages and records for this station are not official NWS values.
T = Trace of Precipitation, MM = Missing Value Source: NWS Daily Summary

Daily Weather History Graph

Daily Weather History Graph

Search for Another Location

Airport or City:

Trip Planner

Search our weather history database for the weather conditions in past years. The results will help you decide how hot, cold, wet, or windy it might be!

Date:

Astronomy

Nov. 23, 2013 Rise Set
Actual Time 7:17 AM EST 4:49 PM EST
Civil Twilight 6:46 AM EST 5:20 PM EST
Nautical Twilight 6:12 AM EST 5:54 PM EST
Astronomical Twilight 5:38 AM EST 6:27 PM EST
Moon 10:18 PM EST (11/23) 11:31 AM EST (11/23)
Length of Visible Light 10h 33m
Length of Day
9h 32m
Waning Gibbous, 70% of the Moon is Illuminated
Nov 23
Waning Gibbous
Nov 25
Last Quarter
Dec 2
New
Dec 9
First Quarter
Dec 17
Full

Hourly Weather History & Observations

Time (EST) Temp. Windchill Dew Point Humidity Pressure Visibility Wind Dir Wind Speed Gust Speed Precip Events Conditions
12:15 AM 30.2 °F 23.4 °F 24.8 °F 80% 30.17 in 10.0 mi NW 6.9 mph - N/A   Overcast
12:35 AM 30.2 °F 24.3 °F 24.8 °F 80% 30.18 in 10.0 mi North 5.8 mph - N/A   Overcast
12:55 AM 30.2 °F 22.6 °F 24.8 °F 80% 30.18 in 10.0 mi NNW 8.1 mph - N/A   Overcast
1:15 AM 30.2 °F 22.6 °F 24.8 °F 80% 30.18 in 10.0 mi North 8.1 mph - N/A   Overcast
1:35 AM 28.4 °F 20.4 °F 24.8 °F 86% 30.18 in 10.0 mi NNW 8.1 mph - N/A   Overcast
1:55 AM 30.2 °F 23.4 °F 24.8 °F 80% 30.19 in 10.0 mi NNW 6.9 mph - N/A   Overcast
2:15 AM 28.4 °F 23.3 °F 23.0 °F 80% 30.19 in 10.0 mi NNW 4.6 mph - N/A   Overcast
2:35 AM 28.4 °F 22.2 °F 23.0 °F 80% 30.19 in 10.0 mi NNW 5.8 mph - N/A   Overcast
2:55 AM 28.4 °F 19.7 °F 23.0 °F 80% 30.19 in 10.0 mi WNW 9.2 mph - N/A   Overcast
3:15 AM 28.4 °F 18.5 °F 23.0 °F 80% 30.18 in 10.0 mi NW 11.5 mph - N/A   Overcast
3:35 AM 28.4 °F 19.1 °F 21.2 °F 74% 30.17 in 10.0 mi WNW 10.4 mph - N/A   Overcast
3:55 AM 28.4 °F 20.4 °F 21.2 °F 74% 30.17 in 10.0 mi WNW 8.1 mph - N/A   Overcast
4:15 AM 28.4 °F 18.0 °F 19.4 °F 69% 30.16 in 10.0 mi WNW 12.7 mph - N/A   Overcast
4:35 AM 28.4 °F 19.7 °F 21.2 °F 74% 30.16 in 10.0 mi WNW 9.2 mph - N/A   Overcast
4:55 AM 28.4 °F 19.7 °F 21.2 °F 74% 30.15 in 10.0 mi WNW 9.2 mph - N/A   Overcast
5:15 AM 28.4 °F 21.2 °F 19.4 °F 69% 30.15 in 10.0 mi West 6.9 mph - N/A   Overcast
5:35 AM 28.4 °F 23.3 °F 21.2 °F 74% 30.14 in 10.0 mi WNW 4.6 mph - N/A   Mostly Cloudy
5:55 AM 28.4 °F - 21.2 °F 74% 30.14 in 10.0 mi Calm Calm - N/A   Overcast
6:15 AM 28.4 °F 24.6 °F 21.2 °F 74% 30.14 in 10.0 mi WSW 3.5 mph - N/A   Overcast
6:35 AM 28.4 °F - 23.0 °F 80% 30.13 in 10.0 mi Calm Calm - N/A   Overcast
6:55 AM 28.4 °F 24.6 °F 21.2 °F 74% 30.13 in 10.0 mi West 3.5 mph - N/A   Overcast
7:15 AM 28.4 °F 21.2 °F 23.0 °F 80% 30.13 in 10.0 mi West 6.9 mph - N/A   Overcast
7:35 AM 28.4 °F 19.1 °F 23.0 °F 80% 30.12 in 10.0 mi WSW 10.4 mph 18.4 mph N/A   Overcast
7:55 AM 28.4 °F 17.0 °F 21.2 °F 74% 30.11 in 10.0 mi West 15.0 mph 20.7 mph N/A   Mostly Cloudy
8:15 AM 30.2 °F 18.5 °F 19.4 °F 64% 30.11 in 10.0 mi West 17.3 mph 25.3 mph N/A   Mostly Cloudy
8:35 AM 28.4 °F 17.5 °F 19.4 °F 69% 30.11 in 10.0 mi West 13.8 mph 19.6 mph N/A   Overcast
8:55 AM 30.2 °F 19.3 °F 19.4 °F 64% 30.11 in 10.0 mi West 15.0 mph 20.7 mph N/A   Overcast
9:15 AM 30.2 °F 19.3 °F 21.2 °F 69% 30.10 in 10.0 mi West 15.0 mph 24.2 mph N/A   Overcast
9:35 AM 30.2 °F 16.8 °F 19.4 °F 64% 30.10 in 10.0 mi West 23.0 mph 33.4 mph N/A   Overcast
9:55 AM 30.2 °F 17.8 °F 19.4 °F 64% 30.09 in 10.0 mi West 19.6 mph 24.2 mph N/A   Mostly Cloudy
10:15 AM 30.2 °F 18.9 °F 19.4 °F 64% 30.08 in 10.0 mi West 16.1 mph 23.0 mph N/A   Overcast
10:35 AM 30.2 °F 18.5 °F 21.2 °F 69% 30.07 in 10.0 mi WSW 17.3 mph 21.9 mph N/A   Overcast
10:55 AM 30.2 °F 20.2 °F 21.2 °F 69% 30.07 in 8.0 mi West 12.7 mph 25.3 mph N/A   Overcast
11:15 AM 30.2 °F 17.1 °F 21.2 °F 69% 30.07 in 10.0 mi West 21.9 mph 31.1 mph N/A   Overcast
11:35 AM 30.2 °F 17.8 °F 17.6 °F 60% 30.05 in 10.0 mi WNW 19.6 mph 34.5 mph N/A   Overcast
11:55 AM 28.4 °F 17.0 °F 17.6 °F 64% 30.05 in 8.0 mi West 15.0 mph 26.5 mph N/A   Overcast
12:15 PM 28.4 °F 15.1 °F 17.6 °F 64% 30.03 in 10.0 mi West 20.7 mph 29.9 mph N/A   Overcast
12:35 PM 26.6 °F 12.4 °F 21.2 °F 80% 30.04 in 0.8 mi West 21.9 mph 26.5 mph N/A   Overcast
12:55 PM 26.6 °F 14.3 °F 23.0 °F 86% 30.03 in 2.0 mi West 16.1 mph - N/A   Overcast
1:15 PM 26.6 °F 15.2 °F 21.2 °F 80% 30.03 in 0.5 mi West 13.8 mph 21.9 mph N/A   Overcast
1:35 PM 26.6 °F 13.1 °F 23.0 °F 86% 30.03 in 0.2 mi NW 19.6 mph 26.5 mph N/A   Overcast
1:55 PM 24.8 °F 11.5 °F 19.4 °F 80% 30.03 in 0.8 mi WNW 17.3 mph 23.0 mph N/A   Overcast
2:15 PM 24.8 °F 11.9 °F 19.4 °F 80% 30.03 in 1.0 mi WNW 16.1 mph 21.9 mph N/A   Overcast
2:35 PM 24.8 °F 11.9 °F 19.4 °F 80% 30.03 in 1.8 mi NW 16.1 mph 26.5 mph N/A   Overcast
2:55 PM 24.8 °F 10.7 °F 17.6 °F 74% 30.03 in 4.0 mi NW 19.6 mph 25.3 mph N/A   Overcast
3:15 PM 24.8 °F 10.7 °F 17.6 °F 74% 30.05 in 1.0 mi WNW 19.6 mph 26.5 mph N/A   Overcast
3:35 PM 24.8 °F 11.1 °F 15.8 °F 69% 30.04 in 5.0 mi WNW 18.4 mph 26.5 mph N/A   Overcast
3:55 PM 23.0 °F 6.9 °F 15.8 °F 74% 30.05 in 1.5 mi NW 24.2 mph 32.2 mph N/A   Overcast
4:15 PM 21.2 °F 6.0 °F 14.0 °F 74% 30.06 in 2.0 mi NW 19.6 mph 28.8 mph N/A   Overcast
4:35 PM 23.0 °F 7.6 °F 12.2 °F 63% 30.07 in 3.0 mi NW 21.9 mph 29.9 mph N/A   Mostly Cloudy
4:55 PM 21.2 °F 5.2 °F 15.8 °F 80% 30.08 in 0.5 mi NW 21.9 mph 32.2 mph N/A   Overcast
5:15 PM 21.2 °F 6.4 °F 12.2 °F 68% 30.09 in 1.0 mi NW 18.4 mph 31.1 mph N/A   Overcast
5:35 PM 19.4 °F 3.6 °F 15.8 °F 86% 30.10 in 0.8 mi NW 19.6 mph 29.9 mph N/A   Overcast
5:55 PM 19.4 °F 3.2 °F 12.2 °F 74% 30.11 in 1.0 mi NW 20.7 mph 33.4 mph N/A   Overcast
6:15 PM 19.4 °F 2.8 °F 6.8 °F 58% 30.12 in 2.0 mi NW 21.9 mph 41.4 mph N/A   Overcast
6:35 PM 19.4 °F 1.8 °F 6.8 °F 58% 30.12 in 7.0 mi NW 25.3 mph 42.6 mph N/A   Overcast
6:55 PM 19.4 °F 3.2 °F 6.8 °F 58% 30.12 in 1.8 mi NW 20.7 mph 34.5 mph N/A   Overcast
7:15 PM 19.4 °F 0.5 °F 6.8 °F 58% 30.13 in 6.0 mi NW 29.9 mph 38.0 mph N/A   Overcast
7:35 PM 19.4 °F 3.6 °F 5.0 °F 54% 30.14 in 7.0 mi NW 19.6 mph 32.2 mph N/A   Mostly Cloudy
7:55 PM 17.6 °F 1.3 °F 6.8 °F 63% 30.14 in 4.0 mi NW 19.6 mph 26.5 mph N/A   Overcast
8:15 PM 17.6 °F 1.7 °F 6.8 °F 63% 30.14 in 3.0 mi NW 18.4 mph 27.6 mph N/A   Overcast
8:35 PM 17.6 °F 1.7 °F 6.8 °F 63% 30.14 in 1.8 mi NW 18.4 mph 33.4 mph N/A   Overcast
8:55 PM 17.6 °F 4.3 °F 8.6 °F 68% 30.14 in 4.0 mi NNW 12.7 mph 19.6 mph N/A   Overcast
9:15 PM 17.6 °F 2.2 °F 8.6 °F 68% 30.14 in 1.8 mi NW 17.3 mph 31.1 mph N/A   Overcast
9:35 PM 17.6 °F 3.7 °F 8.6 °F 68% 30.14 in 2.0 mi NW 13.8 mph 26.5 mph N/A   Overcast
9:55 PM 17.6 °F 1.7 °F 8.6 °F 68% 30.14 in 9.0 mi WNW 18.4 mph 24.2 mph N/A   Overcast
10:15 PM 17.6 °F 3.7 °F 12.2 °F 79% 30.14 in 0.8 mi NW 13.8 mph 23.0 mph N/A   Overcast
10:35 PM 17.6 °F 0.9 °F 10.4 °F 73% 30.14 in 1.0 mi NW 20.7 mph 32.2 mph N/A   Overcast
10:55 PM 17.6 °F 0.9 °F 8.6 °F 68% 30.14 in 1.5 mi NNW 20.7 mph 27.6 mph N/A   Overcast
11:15 PM 17.6 °F 0.5 °F 6.8 °F 63% 30.15 in 0.8 mi NW 21.9 mph 34.5 mph N/A   Overcast
11:35 PM 17.6 °F 2.2 °F 6.8 °F 63% 30.16 in 9.0 mi NW 17.3 mph 23.0 mph N/A   Mostly Cloudy
11:55 PM 15.8 °F 0.9 °F 6.8 °F 68% 30.16 in 7.0 mi NNW 15.0 mph 20.7 mph N/A   Overcast